Regional Weather Roundup
Issued by NWS Portland, ME

Home | Current Version | Previous Version | Text Only | Print | Product List | Glossary On
Versions: 1 2 3 4 5 6 7 8 9 10 11 12 13 14 15 16 17 18 19 20 21 22 23 24 25 26 27 28 29 30 31 32 33 34 35 36 37 38 39 40 41 42 43 44 45 46 47 48 49 50
000
ASUS41 KGYX 251110
RWRGYX
WEATHER ROUNDUP FOR MAINE AND NEW HAMPSHIRE
NATIONAL WEATHER SERVICE GRAY ME
600 AM EST SAT FEB 25 2017

MEZ002-005-006-010-012-015-018-020-021-024-026-027-029-251200-
MAINE

CITY           SKY/WX    TMP DP  RH WIND       PRES   REMARKS
PORTLAND       FOG       45  45 100 S5        29.83F VSB 1/4
SANFORD        LGT RAIN  51  51 100 S5        29.82F VSB 1/4
BAR HARBOR     FOG       42  42 100 S5        29.90S VSB 1/4
WISCASSET      FOG       40  39  97 CALM      29.86F VSB 1/4
ROCKLAND       FOG       43  43 100 CALM      29.87F VSB 1/4
FRYEBURG       CLOUDY    35  35 100 CALM      29.82F FOG
LEWISTONAUBURN FOG       35  35 100 CALM      29.84F VSB 1/4
AUGUSTA        FOG       38  36  92 N5        29.85F VSB 1/4
WATERVILLE     LGT RAIN  39  39 100 CALM      29.84S VSB 1/2
BANGOR         FOG       36  36 100 CALM      29.88F VSB 1/2
GREENVILLE       N/A     35  35 100 SE7       29.81S
MILLINOCKET    CLOUDY    33  33 100 VRB3      29.91S FOG
HOULTON        CLOUDY    34  33  96 SE9G17    29.90S FOG
PRESQUE ISLE   CLOUDY    30  29  96 N3        29.92F FOG
FRENCHVILLE    CLOUDY    27  17  66 E7        29.89F
CARIBOU        CLOUDY    30  26  85 NE6       29.90F
$$

NHZ002-005-008-009-011-012-014-251200-
NEW HAMPSHIRE

CITY           SKY/WX    TMP DP  RH WIND       PRES   REMARKS
PORTSMOUTH     FOG       49  48  98 SE10      29.82S VSB 1/16
ROCHESTER      FOG       49  47  93 S6        29.81F VSB 1/4
NASHUA         CLOUDY    57  55  93 SE3       29.82S
MANCHESTER     CLOUDY    58  53  84 S13       29.79F
CONCORD        CLOUDY    54  52  93 SE9       29.80S
LACONIA        CLOUDY    36  36 100 MISG      29.81F
PLYMOUTH       FOG       36  36 100 CALM      29.81S VSB 1
BERLIN         FOG       34  31  88 CALM      29.79R VSB 1/2
WHITEFIELD     CLOUDY    33  31  92 CALM      29.76S
JAFFREY        CLOUDY    55  53  93 S9        29.80S
KEENE          CLOUDY    57  54  89 S7        29.78S
LEBANON        CLOUDY    39  38  96 CALM      29.76R FOG
MT WASHINGTON  FOG       37  37 100 SW45G63     N/A  VSB 0
$$

VTZ005-007-008-251200-
VERMONT

CITY           SKY/WX    TMP DP  RH WIND       PRES   REMARKS
ST JOHNSBURY     N/A     35  35 100 MISG      29.74F
MONTPELIER     CLOUDY    46  46 100 S5        29.76F
BURLINGTON     CLOUDY    54  50  86 S14       29.64F
$$

MAZ007-012-024-CTZ003-RIZ002-NYZ038-NYZ072-251200-
SOUTHERN NEW ENGLAND AND NY

CITY           SKY/WX    TMP DP  RH WIND       PRES   REMARKS
BOSTON         PTCLDY    51  51 100 S8        29.84F
WORCESTER      FOG       53  52  96 S10       29.82F VSB 1/4
NANTUCKET      CLEAR     46  44  93 SE8       29.90S
PROVIDENCE     FOG       48  47  96 S5        29.85F VSB 1/4
HARTFORD       CLOUDY    56  55  97 S10       29.79F
ALBANY         PTCLDY    61  53  75 S13G23    29.69S
NEW YORK CITY  FOG       52  50  93 S6        29.79F VSB 1/4
$$

ANZ081-ANZ082-ANZ150-NHZ014-MEZ023>029-251200-
COASTAL MARINE OBSERVATIONS

STATION/POSITION TIME  TEMP    WIND        PRES    WAVE
                       AIR SEA DIR/SP/G            HT/PER
                 (UTC) (F)     (DEG/KT/KT) (MB)    (FT/S)
MOUNT DESERT ROC 1100   44                 1012.2F
MATINICUS ROCK   1100   45     180/ 20/ 21 1010.8F
ISLE OF SHOALS   1100   51     170/ 20/ 20 1009.9F
JEFFREYS LEDGE   1036      43                N/A     3/10
CASHES LEDGE BUO 1050   45 43              1012.0F   3/ 5
GEORGES BANK BUO 0950   47 44              1015.6    3/11
$$

.............KEY..............
   WCI - WIND CHILL
   TC  - TEMPERATURE IN CELSIUS
   VSB - VISIBILITY IN MILES
   HX  - HEAT INDEX
   FAIR- INDICATES FEW OR NO CLOUDS BELOW 12,000 FT, WITH NO
         SIGNIFICANT WEATHER AND/OR OBSTRUCTIONS TO VISIBILITY.






USA.gov is the U.S. government's official web portal to all federal, state and local government web resources and services.